Showing default

HERMES-5, 63834

Orbit data source: Space-Track

HERMES-5, 63834 is a payload satellite owned by ASI (IT) in SSO that was launched on Sat, 15 Mar 2025 UTC via an FALCON 9 launch vehicle from the Air Force Western Test Range (AFWTR). Payload-class satellites include a variety of spacecraft equipped with specific instruments for various scientific and technological missions. These include communications satellites like Starlink; space stations such as the ISS; scientific satellites like the Hubble; Earth observation satellites from companies like Planet Labs, Umbra, and HawkEye 360; GPS; miniature CubeSats for education and research; and military/defense satellites.

Loading next visibility...
Identifier
63834, 2025-052BQ
Orbit
SSO
Country
Flag of ITIT
Related business
Manufacturer
MILANP/INAFI
Mission
Operational Civil Astronomy
Bus & Motor
CUBESAT 3U, Unknown motor
Mass
5 kg wet, 5 kg dry
Launch date (UTC)
2025-03-15 (9 months ago)
Launch vehicle
FALCON 9
Launch site
Air Force Western Test Range (AFWTR)
Object type
Payload
Rocket body
Debris
Shape & HBR
Box, 0.2 m
Radar Cross Section
0.035 m², Small (<0.1 m²)

Expand to show TLE details & history
Last TLE update: 17 hours ago

TLE from 17 hours ago
0 HERMES-5
1 63834U 25052BQ  25347.23257735  .00021810  00000-0  93092-3 0  9991
2 63834  97.4177 238.3248 0007299  81.4867 278.7197 15.22891910 41590
Epoch: 2025-12-13T05:34Z
TLE epoch observation values (Epoch: 2025-12-13T05:34:54.683Z)
Latitude
0.00005°
Longitude
72.43415°
Altitude
499.459 km
Speed
7.615 km/s
True Right ascension
15h 53m 17s
True Declination
0° 00' 00"
Sunlit
Object was in daylight at epoch
Visualization orbit readout
Latitude
Unknown
Longitude
Unknown
Altitude
Unknown
Speed
Unknown
Apparent Right ascension
Unknown
Apparent Declination
Unknown
Sunlit
N/A
Visualization observer readout
Local Sidereal Time
21:17:36
Azimuth
Unknown
Elevation
Unknown
Doppler factor
Unknown
Orbital elements
Apogee altitude
499.101 km
Perigee altitude
489.069 km
Semi-major axis
6,872.222 km
Eccentricity
0.00073
Inclination
97.4177°
RAAN
238.3248°
Arg. of periapsis
81.4867°
True anomaly
278.63701°
Mean anomaly
278.7197°
Eccentric anomaly
278.67836°
Mean motion
3.80976 °/min
Orbital period
94.49 mins
BSTAR
0.00093092
Loading maneuver chart data...
Computing Atmospheric mass density...
Loading historical data...
Loading historical data...
Loading historical data...
Loading historical data...
Loading historical data...
Loading historical data...
Loading historical data...

Documentation

Showing up to 5 results
|